Location: Karcze
(52.0945°N, 22.4786°E)
Time: 22:54:00
(UTC+00:00)

Transit 4A - Pass Details

Date: 04 August 2021
Orbit: 871 x 974 km, 66.8° (Epoch: 18 September)

Event Time Altitude Azimuth Distance (km) Brightness Sun altitude
Rises 00:48:28 0° 273° (W) 3,471 10.6 -15.0°
Reaches altitude 10° 00:51:28 10° 287° (WNW) 2,528 10.0 -14.7°
Maximum altitude 00:56:05 24° 340° (NNW) 1,752 9.8 -14.3°
Drops below altitude 10° 01:00:43 10° 33° (NNE) 2,534 11.6 -13.9°
Sets 01:03:45 0° 47° (NE) 3,481 12.7 -13.6°
